This is the latest recevied weather packets stored in our database for station/object WA6ODQ-13. If no packets are shown the sender has not sent any weather packets the latest 10 day(s).
| Time | Temp. | Humidity | Pressure | Rain* | Wind** | Luminosity | Snow |
|---|---|---|---|---|---|---|---|
| 1777930527 | 17.78° C | 61% | 1013.3 hPa | 0 mm | - | 121 W/m² | - |
| 1777930224 | 18.33° C | 60% | 1013.3 hPa | 0 mm | - | 143 W/m² | - |
| 1777929920 | 18.33° C | 60% | 1013.2 hPa | 0 mm | - | 167 W/m² | - |
| 1777929617 | 18.33° C | 61% | 1013.1 hPa | 0 mm | - | 212 W/m² | - |
| 1777929314 | 17.78° C | 61% | 1013 hPa | 0 mm | - | 202 W/m² | - |
| 1777929012 | 17.78° C | 62% | 1013.1 hPa | 0 mm | - | 184 W/m² | - |
| 1777928708 | 17.78° C | 63% | 1013.1 hPa | 0 mm | - | 165 W/m² | - |
| 1777928405 | 17.78° C | 62% | 1013.2 hPa | 0 mm | - | 247 W/m² | - |
| 1777928103 | 17.78° C | 62% | 1013.3 hPa | 0 mm | - | 226 W/m² | - |
| 1777927801 | 17.78° C | 61% | 1013.1 hPa | 0 mm | - | 177 W/m² | - |
| 1777927499 | 17.78° C | 61% | 1013.1 hPa | 0 mm | - | 221 W/m² | - |
| 1777927197 | 17.78° C | 61% | 1013 hPa | 0 mm | - | 255 W/m² | - |
| 1777926895 | 17.22° C | 62% | 1013.2 hPa | 0 mm | - | 249 W/m² | - |
| 1777926591 | 17.78° C | 61% | 1013.4 hPa | 0 mm | - | 210 W/m² | - |
| 1777926287 | 17.78° C | 62% | 1013.3 hPa | 0 mm | - | 202 W/m² | - |
| 1777925984 | 17.22° C | 63% | 1013.4 hPa | 0 mm | - | 199 W/m² | - |
| 1777925681 | 17.22° C | 61% | 1013.4 hPa | 0 mm | - | 205 W/m² | - |
| 1777925379 | 17.22° C | 62% | 1013.3 hPa | 0 mm | - | 240 W/m² | - |
| 1777925076 | 17.22° C | 64% | 1013.3 hPa | 0 mm | - | 261 W/m² | - |
| 1777924772 | 17.22° C | 65% | 1013.4 hPa | 0 mm | - | 248 W/m² | - |
| 1777924468 | 16.67° C | 66% | 1013.2 hPa | 0 mm | - | 229 W/m² | - |
| 1777924165 | 16.67° C | 66% | 1013.4 hPa | 0 mm | - | 218 W/m² | - |
| 1777923861 | 16.67° C | 67% | 1013.4 hPa | 0 mm | - | 207 W/m² | - |
| 1777923557 | 16.67° C | 66% | 1013.5 hPa | 0 mm | - | 189 W/m² | - |
| 1777923254 | 16.67° C | 68% | 1013.5 hPa | 0 mm | - | 200 W/m² | - |
* Rain latest hour (hover to see other rain measurements)
** Current wind speed in m/s (hover to see current wind gust speed)